N7454P MYNN-MDPP

Flight info

Callsign N7454P
Flight time 3h 20m
Altitude 11000
Route ZQA A555 MICAS G648 PVN BR2L TOMAZ DCT JUELE W38 PTA
Aircraft PA24/L-SDGRY/S

Departure

Time 2026-04-22 14:44
Airport Lynden Pindling International Airport (MYNN)

Arrival

Time 2026-04-22 18:05
Airport Gregorio Luperon International Airport (MDPP)
Time Latitude Longitude Altitude Speed Heading
2026-04-22 14:29 25.03097 -77.45774 10 ft 0 kts 46°
2026-04-22 14:36 25.03122 -77.45753 10 ft 21 kts 23°
2026-04-22 14:36 25.03294 -77.45678 10 ft 13 kts 21°
2026-04-22 14:36 25.03493 -77.45546 12 ft 27 kts 41°
2026-04-22 14:36 25.03585 -77.45530 11 ft 16 kts 303°
2026-04-22 14:37 25.03692 -77.45657 12 ft 28 kts 314°
2026-04-22 14:37 25.03852 -77.45838 12 ft 36 kts 316°
2026-04-22 14:37 25.04004 -77.46003 11 ft 26 kts 315°
2026-04-22 14:37 25.04074 -77.46148 12 ft 18 kts 290°
2026-04-22 14:38 25.04091 -77.46199 12 ft 0 kts 289°
2026-04-22 14:41 25.04094 -77.46209 12 ft 13 kts 288°
2026-04-22 14:41 25.04131 -77.46344 12 ft 17 kts 286°
2026-04-22 14:42 25.04137 -77.46414 11 ft 1 kts 131°
2026-04-22 14:42 25.04136 -77.46413 11 ft 0 kts 131°
2026-04-22 14:42 25.04135 -77.46411 11 ft 2 kts 131°
2026-04-22 14:42 25.04118 -77.46390 11 ft 0 kts 130°
2026-04-22 14:44 25.03991 -77.46242 13 ft 63 kts 133°
2026-04-22 14:44 25.03589 -77.45804 96 ft 88 kts 130°
2026-04-22 14:44 25.03152 -77.45319 325 ft 92 kts 131°
2026-04-22 14:44 25.02707 -77.44790 620 ft 93 kts 124°
2026-04-22 14:45 25.02402 -77.44175 933 ft 92 kts 110°
2026-04-22 14:45 25.02113 -77.43556 1226 ft 90 kts 117°
2026-04-22 14:45 25.01748 -77.42980 1496 ft 93 kts 122°
2026-04-22 14:45 25.01337 -77.42429 1794 ft 93 kts 125°
2026-04-22 14:46 25.00900 -77.41894 2071 ft 94 kts 124°
2026-04-22 14:46 25.00469 -77.41351 2356 ft 94 kts 122°
2026-04-22 14:46 25.00054 -77.40792 2617 ft 95 kts 119°
2026-04-22 14:46 24.99653 -77.40218 2871 ft 95 kts 117°
2026-04-22 14:47 24.99258 -77.39634 3128 ft 94 kts 116°
2026-04-22 14:47 24.98862 -77.39033 3305 ft 98 kts 115°
2026-04-22 14:47 24.98475 -77.38429 3558 ft 95 kts 115°
2026-04-22 14:47 24.98100 -77.37824 3772 ft 97 kts 114°
2026-04-22 14:48 24.97723 -77.37211 3997 ft 96 kts 115°
2026-04-22 14:48 24.97332 -77.36602 4203 ft 98 kts 116°
2026-04-22 14:48 24.96934 -77.35987 4422 ft 98 kts 116°
2026-04-22 14:48 24.96537 -77.35372 4626 ft 99 kts 116°
2026-04-22 14:49 24.96136 -77.34753 4835 ft 99 kts 116°
2026-04-22 14:49 24.95736 -77.34135 5035 ft 100 kts 116°
2026-04-22 14:49 24.95333 -77.33513 5236 ft 100 kts 116°
2026-04-22 14:49 24.94930 -77.32887 5433 ft 101 kts 117°
2026-04-22 14:50 24.94521 -77.32257 5627 ft 101 kts 117°
2026-04-22 14:50 24.94111 -77.31625 5822 ft 102 kts 117°
2026-04-22 14:50 24.93698 -77.30988 6002 ft 102 kts 117°
2026-04-22 14:50 24.93283 -77.30349 6187 ft 103 kts 117°
2026-04-22 14:51 24.92871 -77.29714 6357 ft 104 kts 117°
2026-04-22 14:51 24.92451 -77.29065 6535 ft 104 kts 117°
2026-04-22 14:51 24.92026 -77.28410 6701 ft 106 kts 117°
2026-04-22 14:51 24.91599 -77.27749 6869 ft 107 kts 118°
2026-04-22 14:52 24.91168 -77.27083 7058 ft 107 kts 118°
2026-04-22 14:52 24.90739 -77.26415 7234 ft 108 kts 118°
2026-04-22 14:52 24.90299 -77.25738 7409 ft 109 kts 118°
2026-04-22 14:52 24.89858 -77.25057 7579 ft 110 kts 119°
2026-04-22 14:53 24.89408 -77.24368 7743 ft 111 kts 119°
2026-04-22 14:53 24.88957 -77.23675 7909 ft 112 kts 119°
2026-04-22 14:53 24.88499 -77.22975 8058 ft 113 kts 120°
2026-04-22 14:53 24.88041 -77.22270 8217 ft 113 kts 120°
2026-04-22 14:54 24.87578 -77.21558 8355 ft 115 kts 120°
2026-04-22 14:54 24.87111 -77.20843 8505 ft 115 kts 120°
2026-04-22 14:54 24.86643 -77.20121 8639 ft 117 kts 120°
2026-04-22 14:54 24.86168 -77.19394 8778 ft 117 kts 120°
2026-04-22 14:55 24.85693 -77.18663 8907 ft 118 kts 120°
2026-04-22 14:55 24.85214 -77.17926 9037 ft 119 kts 121°
2026-04-22 14:55 24.84732 -77.17186 9159 ft 119 kts 121°
2026-04-22 14:55 24.84246 -77.16441 9281 ft 120 kts 121°
2026-04-22 14:56 24.83761 -77.15688 9400 ft 121 kts 121°
2026-04-22 14:56 24.83269 -77.14930 9515 ft 122 kts 122°
2026-04-22 14:56 24.82773 -77.14170 9624 ft 123 kts 122°
2026-04-22 14:56 24.82272 -77.13406 9741 ft 123 kts 122°
2026-04-22 14:57 24.81770 -77.12638 9850 ft 124 kts 122°
2026-04-22 14:57 24.81265 -77.11866 9954 ft 125 kts 122°
2026-04-22 14:57 24.80758 -77.11089 10059 ft 125 kts 122°
2026-04-22 14:57 24.80252 -77.10307 10156 ft 126 kts 122°
2026-04-22 14:58 24.79749 -77.09534 10254 ft 126 kts 122°
2026-04-22 14:58 24.79236 -77.08747 10346 ft 127 kts 122°
2026-04-22 14:58 24.78720 -77.07957 10447 ft 127 kts 123°
2026-04-22 14:58 24.78202 -77.07164 10528 ft 128 kts 123°
2026-04-22 14:59 24.77682 -77.06367 10619 ft 128 kts 123°
2026-04-22 14:59 24.77158 -77.05569 10704 ft 129 kts 123°
2026-04-22 14:59 24.76630 -77.04763 10793 ft 130 kts 123°
2026-04-22 14:59 24.76102 -77.03954 10871 ft 130 kts 123°
2026-04-22 15:00 24.75573 -77.03141 10950 ft 131 kts 123°
2026-04-22 15:00 24.75041 -77.02326 11027 ft 131 kts 123°
2026-04-22 15:00 24.74508 -77.01508 11102 ft 132 kts 123°
2026-04-22 15:00 24.73972 -77.00688 11175 ft 132 kts 123°
2026-04-22 15:01 24.73435 -76.99865 11247 ft 133 kts 123°
2026-04-22 15:01 24.72897 -76.99041 11316 ft 133 kts 123°
2026-04-22 15:01 24.72357 -76.98215 11383 ft 133 kts 123°
2026-04-22 15:01 24.71815 -76.97386 11448 ft 134 kts 123°
2026-04-22 15:02 24.71269 -76.96551 11511 ft 135 kts 123°
2026-04-22 15:02 24.70722 -76.95716 11575 ft 135 kts 123°
2026-04-22 15:02 24.70175 -76.94877 11633 ft 135 kts 124°
2026-04-22 15:02 24.69627 -76.94040 11692 ft 135 kts 124°
2026-04-22 15:03 24.69077 -76.93197 11714 ft 138 kts 124°
2026-04-22 15:03 24.68497 -76.92310 11671 ft 144 kts 124°
2026-04-22 15:03 24.67926 -76.91442 11799 ft 138 kts 124°
2026-04-22 15:03 24.67343 -76.90550 11671 ft 150 kts 124°
2026-04-22 15:04 24.66736 -76.89624 11667 ft 151 kts 124°
2026-04-22 15:04 24.66096 -76.88647 11443 ft 165 kts 124°
2026-04-22 15:04 24.65430 -76.87632 11424 ft 162 kts 124°
2026-04-22 15:04 24.64765 -76.86619 11302 ft 167 kts 124°
2026-04-22 15:05 24.64081 -76.85572 11147 ft 170 kts 124°
2026-04-22 15:05 24.63379 -76.84496 10965 ft 174 kts 124°
2026-04-22 15:05 24.62701 -76.83466 11026 ft 164 kts 124°
2026-04-22 15:05 24.62033 -76.82452 10992 ft 163 kts 124°
2026-04-22 15:06 24.61596 -76.81789 10985 ft 161 kts 124°
2026-04-22 15:06 24.60727 -76.80467 10979 ft 158 kts 124°
2026-04-22 15:06 24.60085 -76.79492 10978 ft 157 kts 124°
2026-04-22 15:06 24.59450 -76.78524 10980 ft 155 kts 124°
2026-04-22 15:07 24.58821 -76.77562 10975 ft 155 kts 124°
2026-04-22 15:07 24.58194 -76.76603 10977 ft 154 kts 124°
2026-04-22 15:07 24.57568 -76.75647 10978 ft 154 kts 124°
2026-04-22 15:07 24.56944 -76.74694 10980 ft 153 kts 124°
2026-04-22 15:08 24.56322 -76.73744 10982 ft 153 kts 124°
2026-04-22 15:08 24.55699 -76.72794 10984 ft 153 kts 124°
2026-04-22 15:08 24.55077 -76.71846 10984 ft 153 kts 124°
2026-04-22 15:08 24.54455 -76.70900 10985 ft 153 kts 124°
2026-04-22 15:09 24.53833 -76.69953 10985 ft 152 kts 124°
2026-04-22 15:09 24.53211 -76.69006 10988 ft 154 kts 124°
2026-04-22 15:09 24.52576 -76.68041 11002 ft 157 kts 124°
2026-04-22 15:09 24.51932 -76.67063 10996 ft 160 kts 124°
2026-04-22 15:10 24.51285 -76.66080 10991 ft 162 kts 124°
2026-04-22 15:10 24.50612 -76.65057 10990 ft 164 kts 124°
2026-04-22 15:10 24.49942 -76.64038 10989 ft 165 kts 124°
2026-04-22 15:10 24.49268 -76.63015 10975 ft 167 kts 124°
2026-04-22 15:11 24.48597 -76.61996 10977 ft 167 kts 124°
2026-04-22 15:11 24.47917 -76.60965 10982 ft 166 kts 124°
2026-04-22 15:11 24.47250 -76.59942 10991 ft 164 kts 124°
2026-04-22 15:11 24.46585 -76.58922 10991 ft 164 kts 125°
2026-04-22 15:12 24.45915 -76.57902 10995 ft 165 kts 125°
2026-04-22 15:12 24.45237 -76.56880 10989 ft 166 kts 125°
2026-04-22 15:12 24.44557 -76.55854 10985 ft 166 kts 125°
2026-04-22 15:12 24.43877 -76.54827 10984 ft 166 kts 125°
2026-04-22 15:13 24.43197 -76.53801 10984 ft 166 kts 125°
2026-04-22 15:13 24.42518 -76.52774 10985 ft 166 kts 125°
2026-04-22 15:13 24.41841 -76.51750 10985 ft 166 kts 125°
2026-04-22 15:13 24.41162 -76.50723 10985 ft 166 kts 125°
2026-04-22 15:14 24.40484 -76.49696 10985 ft 166 kts 125°
2026-04-22 15:14 24.39807 -76.48669 10985 ft 166 kts 125°
2026-04-22 15:14 24.39132 -76.47644 10985 ft 166 kts 125°
2026-04-22 15:14 24.38453 -76.46618 10985 ft 166 kts 125°
2026-04-22 15:15 24.37775 -76.45591 10985 ft 166 kts 125°
2026-04-22 15:15 24.37097 -76.44563 10985 ft 166 kts 125°
2026-04-22 15:15 24.36418 -76.43536 10979 ft 166 kts 125°
2026-04-22 15:15 24.35740 -76.42509 10985 ft 166 kts 125°
2026-04-22 15:16 24.35060 -76.41483 10983 ft 166 kts 125°
2026-04-22 15:16 24.34381 -76.40457 10982 ft 166 kts 125°
2026-04-22 15:16 24.33711 -76.39445 10986 ft 166 kts 125°
2026-04-22 15:16 24.33035 -76.38423 10986 ft 165 kts 125°
2026-04-22 15:17 24.32351 -76.37388 10985 ft 165 kts 126°
2026-04-22 15:17 24.31676 -76.36368 10986 ft 165 kts 126°
2026-04-22 15:17 24.31001 -76.35350 10981 ft 165 kts 126°
2026-04-22 15:17 24.30332 -76.34339 10985 ft 166 kts 126°
2026-04-22 15:18 24.29644 -76.33299 10985 ft 166 kts 126°
2026-04-22 15:18 24.28974 -76.32287 10980 ft 166 kts 126°
2026-04-22 15:18 24.28294 -76.31261 10984 ft 166 kts 126°
2026-04-22 15:18 24.27614 -76.30235 10982 ft 166 kts 126°
2026-04-22 15:19 24.26934 -76.29210 10981 ft 166 kts 126°
2026-04-22 15:19 24.26254 -76.28185 10985 ft 166 kts 126°
2026-04-22 15:19 24.25574 -76.27159 10985 ft 166 kts 126°
2026-04-22 15:19 24.24894 -76.26134 10985 ft 166 kts 126°
2026-04-22 15:20 24.24435 -76.25443 10980 ft 166 kts 126°
2026-04-22 15:20 24.23531 -76.24082 10976 ft 167 kts 126°
2026-04-22 15:20 24.22849 -76.23055 10975 ft 167 kts 126°
2026-04-22 15:20 24.22168 -76.22028 10975 ft 166 kts 126°
2026-04-22 15:21 24.21488 -76.21005 10975 ft 166 kts 126°
2026-04-22 15:21 24.20808 -76.19980 10975 ft 166 kts 126°
2026-04-22 15:21 24.20127 -76.18955 10975 ft 166 kts 126°
2026-04-22 15:21 24.19447 -76.17930 10975 ft 166 kts 126°
2026-04-22 15:22 24.18767 -76.16905 10976 ft 166 kts 126°
2026-04-22 15:22 24.18086 -76.15881 10975 ft 166 kts 126°
2026-04-22 15:22 24.17405 -76.14856 10975 ft 166 kts 126°
2026-04-22 15:22 24.16724 -76.13831 10975 ft 166 kts 126°
2026-04-22 15:23 24.16043 -76.12808 10975 ft 166 kts 126°
2026-04-22 15:23 24.15361 -76.11784 10975 ft 166 kts 126°
2026-04-22 15:23 24.14689 -76.10774 10975 ft 166 kts 126°
2026-04-22 15:23 24.14007 -76.09751 10975 ft 166 kts 126°
2026-04-22 15:24 24.13326 -76.08727 10975 ft 166 kts 126°
2026-04-22 15:24 24.12644 -76.07704 10975 ft 166 kts 126°
2026-04-22 15:24 24.11965 -76.06683 10975 ft 166 kts 126°
2026-04-22 15:24 24.11283 -76.05660 10975 ft 166 kts 126°
2026-04-22 15:25 24.10601 -76.04637 10975 ft 166 kts 126°
2026-04-22 15:25 24.09919 -76.03613 10975 ft 166 kts 126°
2026-04-22 15:25 24.09238 -76.02589 10975 ft 166 kts 126°
2026-04-22 15:25 24.08555 -76.01566 10975 ft 166 kts 126°
2026-04-22 15:26 24.07873 -76.00543 10975 ft 166 kts 126°
2026-04-22 15:26 24.07191 -75.99520 10975 ft 166 kts 126°
2026-04-22 15:26 24.06508 -75.98497 10975 ft 166 kts 126°
2026-04-22 15:26 24.05825 -75.97474 10975 ft 166 kts 126°
2026-04-22 15:27 24.05143 -75.96452 10974 ft 166 kts 126°
2026-04-22 15:27 24.04690 -75.95773 10969 ft 167 kts 126°
2026-04-22 15:27 24.04006 -75.94748 10967 ft 167 kts 126°
2026-04-22 15:27 24.03322 -75.93723 10966 ft 167 kts 126°
2026-04-22 15:28 24.02638 -75.92698 10966 ft 167 kts 126°
2026-04-22 15:28 24.01733 -75.91343 10966 ft 167 kts 126°
2026-04-22 15:28 24.01271 -75.90652 10966 ft 167 kts 126°
2026-04-22 15:28 24.00589 -75.89631 10966 ft 166 kts 126°
2026-04-22 15:29 23.99905 -75.88608 10966 ft 167 kts 126°
2026-04-22 15:29 23.99222 -75.87586 10966 ft 167 kts 126°
2026-04-22 15:29 23.98538 -75.86563 10965 ft 167 kts 126°
2026-04-22 15:30 23.97170 -75.84518 10959 ft 167 kts 126°
2026-04-22 15:30 23.96486 -75.83495 10957 ft 167 kts 126°
2026-04-22 15:30 23.95802 -75.82472 10959 ft 166 kts 126°
2026-04-22 15:30 23.95119 -75.81452 10964 ft 166 kts 126°
2026-04-22 15:31 23.94446 -75.80447 10965 ft 166 kts 126°
2026-04-22 15:31 23.93763 -75.79428 10960 ft 166 kts 126°
2026-04-22 15:31 23.93079 -75.78407 10958 ft 166 kts 126°
2026-04-22 15:31 23.92397 -75.77387 10956 ft 166 kts 126°
2026-04-22 15:32 23.91713 -75.76367 10957 ft 166 kts 126°
2026-04-22 15:32 23.91029 -75.75347 10957 ft 166 kts 126°
2026-04-22 15:32 23.90346 -75.74327 10957 ft 166 kts 126°
2026-04-22 15:32 23.89662 -75.73307 10956 ft 166 kts 126°
2026-04-22 15:33 23.88978 -75.72287 10957 ft 166 kts 126°
2026-04-22 15:33 23.88294 -75.71268 10957 ft 166 kts 126°
2026-04-22 15:33 23.87611 -75.70248 10957 ft 166 kts 126°
2026-04-22 15:33 23.86927 -75.69229 10957 ft 166 kts 126°
2026-04-22 15:34 23.86243 -75.68210 10957 ft 166 kts 126°
2026-04-22 15:34 23.85559 -75.67191 10956 ft 166 kts 126°
2026-04-22 15:34 23.84875 -75.66173 10957 ft 166 kts 126°
2026-04-22 15:34 23.84191 -75.65155 10957 ft 166 kts 126°
2026-04-22 15:35 23.83507 -75.64137 10957 ft 166 kts 126°
2026-04-22 15:35 23.82823 -75.63119 10957 ft 166 kts 126°
2026-04-22 15:35 23.82139 -75.62100 10956 ft 166 kts 126°
2026-04-22 15:35 23.81457 -75.61085 10956 ft 166 kts 126°
2026-04-22 15:36 23.80772 -75.60066 10957 ft 166 kts 126°
2026-04-22 15:36 23.80088 -75.59048 10957 ft 166 kts 126°
2026-04-22 15:36 23.79404 -75.58031 10957 ft 166 kts 126°
2026-04-22 15:36 23.78719 -75.57013 10956 ft 166 kts 126°
2026-04-22 15:37 23.78035 -75.55995 10957 ft 166 kts 126°
2026-04-22 15:37 23.77350 -75.54977 10957 ft 166 kts 126°
2026-04-22 15:37 23.76664 -75.53959 10956 ft 166 kts 126°
2026-04-22 15:37 23.75979 -75.52941 10957 ft 166 kts 126°
2026-04-22 15:38 23.75294 -75.51923 10957 ft 166 kts 126°
2026-04-22 15:38 23.73923 -75.49887 10957 ft 166 kts 126°
2026-04-22 15:38 23.73237 -75.48870 10957 ft 166 kts 126°
2026-04-22 15:39 23.72551 -75.47852 10957 ft 166 kts 126°
2026-04-22 15:39 23.71865 -75.46835 10957 ft 166 kts 126°
2026-04-22 15:39 23.71179 -75.45818 10956 ft 166 kts 126°
2026-04-22 15:39 23.70495 -75.44803 10956 ft 166 kts 126°
2026-04-22 15:40 23.69810 -75.43785 10956 ft 166 kts 126°
2026-04-22 15:40 23.69133 -75.42781 10956 ft 166 kts 126°
2026-04-22 15:40 23.68447 -75.41764 10957 ft 167 kts 126°
2026-04-22 15:40 23.67758 -75.40745 10957 ft 167 kts 126°
2026-04-22 15:41 23.67070 -75.39725 10957 ft 167 kts 126°
2026-04-22 15:41 23.66381 -75.38704 10957 ft 167 kts 126°
2026-04-22 15:41 23.65693 -75.37684 10957 ft 167 kts 126°
2026-04-22 15:41 23.65004 -75.36664 10957 ft 167 kts 126°
2026-04-22 15:42 23.64314 -75.35645 10956 ft 167 kts 126°
2026-04-22 15:42 23.63625 -75.34626 10956 ft 167 kts 126°
2026-04-22 15:42 23.62937 -75.33607 10957 ft 167 kts 126°
2026-04-22 15:42 23.62247 -75.32589 10957 ft 167 kts 126°
2026-04-22 15:43 23.61558 -75.31572 10956 ft 167 kts 126°
2026-04-22 15:43 23.60871 -75.30551 10956 ft 167 kts 126°
2026-04-22 15:43 23.60184 -75.29531 10957 ft 167 kts 126°
2026-04-22 15:43 23.59495 -75.28512 10957 ft 167 kts 126°
2026-04-22 15:44 23.58807 -75.27493 10957 ft 167 kts 126°
2026-04-22 15:44 23.58119 -75.26471 10957 ft 167 kts 126°
2026-04-22 15:44 23.57453 -75.25432 10958 ft 167 kts 123°
2026-04-22 15:44 23.56857 -75.24349 10957 ft 167 kts 119°
2026-04-22 15:45 23.56309 -75.23234 10956 ft 167 kts 117°
2026-04-22 15:45 23.55791 -75.22121 10956 ft 167 kts 116°
2026-04-22 15:45 23.55272 -75.20991 10956 ft 167 kts 116°
2026-04-22 15:45 23.54747 -75.19865 10956 ft 167 kts 117°
2026-04-22 15:46 23.54216 -75.18744 10956 ft 166 kts 117°
2026-04-22 15:46 23.53676 -75.17628 10956 ft 166 kts 118°
2026-04-22 15:46 23.53128 -75.16517 10957 ft 166 kts 118°
2026-04-22 15:46 23.52576 -75.15409 10957 ft 166 kts 118°
2026-04-22 15:47 23.52021 -75.14302 10956 ft 166 kts 118°
2026-04-22 15:47 23.51465 -75.13196 10956 ft 166 kts 118°
2026-04-22 15:47 23.50908 -75.12091 10957 ft 166 kts 118°
2026-04-22 15:47 23.50351 -75.10986 10957 ft 166 kts 118°
2026-04-22 15:48 23.49795 -75.09880 10956 ft 166 kts 118°
2026-04-22 15:48 23.49240 -75.08774 10957 ft 166 kts 118°
2026-04-22 15:48 23.48686 -75.07671 10957 ft 166 kts 118°
2026-04-22 15:48 23.48131 -75.06565 10957 ft 166 kts 118°
2026-04-22 15:49 23.47576 -75.05459 10957 ft 166 kts 118°
2026-04-22 15:49 23.47021 -75.04354 10957 ft 166 kts 118°
2026-04-22 15:49 23.46474 -75.03263 10957 ft 166 kts 118°
2026-04-22 15:49 23.45919 -75.02158 10957 ft 166 kts 118°
2026-04-22 15:50 23.45365 -75.01053 10957 ft 166 kts 118°
2026-04-22 15:50 23.44810 -74.99948 10957 ft 166 kts 118°
2026-04-22 15:50 23.44255 -74.98843 10957 ft 166 kts 118°
2026-04-22 15:50 23.43699 -74.97738 10957 ft 166 kts 118°
2026-04-22 15:51 23.43144 -74.96634 10956 ft 166 kts 118°
2026-04-22 15:51 23.42589 -74.95529 10957 ft 166 kts 118°
2026-04-22 15:51 23.42034 -74.94424 10957 ft 166 kts 118°
2026-04-22 15:51 23.41479 -74.93322 10957 ft 166 kts 118°
2026-04-22 15:52 23.40923 -74.92218 10957 ft 166 kts 118°
2026-04-22 15:52 23.40368 -74.91113 10956 ft 166 kts 118°
2026-04-22 15:52 23.39813 -74.90009 10957 ft 166 kts 118°
2026-04-22 15:52 23.39257 -74.88904 10957 ft 166 kts 118°
2026-04-22 15:53 23.38701 -74.87800 10957 ft 166 kts 118°
2026-04-22 15:53 23.38142 -74.86696 10957 ft 167 kts 118°
2026-04-22 15:53 23.37585 -74.85591 10956 ft 167 kts 118°
2026-04-22 15:53 23.37029 -74.84483 10957 ft 167 kts 118°
2026-04-22 15:54 23.36471 -74.83376 10957 ft 167 kts 118°
2026-04-22 15:54 23.35913 -74.82270 10957 ft 167 kts 118°
2026-04-22 15:54 23.35355 -74.81163 10957 ft 167 kts 118°
2026-04-22 15:54 23.34799 -74.80057 10957 ft 167 kts 118°
2026-04-22 15:55 23.34239 -74.78950 10956 ft 167 kts 118°
2026-04-22 15:55 23.33679 -74.77842 10957 ft 167 kts 118°
2026-04-22 15:55 23.33120 -74.76732 10956 ft 167 kts 118°
2026-04-22 15:55 23.32559 -74.75623 10957 ft 167 kts 118°
2026-04-22 15:56 23.32008 -74.74526 10956 ft 168 kts 118°
2026-04-22 15:56 23.31448 -74.73412 10957 ft 168 kts 118°
2026-04-22 15:56 23.30886 -74.72301 10957 ft 168 kts 118°
2026-04-22 15:56 23.30323 -74.71192 10957 ft 167 kts 119°
2026-04-22 15:57 23.29760 -74.70082 10957 ft 167 kts 119°
2026-04-22 15:57 23.29198 -74.68973 10957 ft 167 kts 118°
2026-04-22 15:57 23.28637 -74.67863 10956 ft 167 kts 118°
2026-04-22 15:57 23.28077 -74.66753 10957 ft 167 kts 118°
2026-04-22 15:58 23.27518 -74.65644 10956 ft 167 kts 119°
2026-04-22 15:58 23.26959 -74.64538 10957 ft 167 kts 119°
2026-04-22 15:58 23.26397 -74.63427 10956 ft 167 kts 119°
2026-04-22 15:58 23.25837 -74.62322 10957 ft 167 kts 119°
2026-04-22 15:59 23.25276 -74.61214 10957 ft 167 kts 119°
2026-04-22 15:59 23.24715 -74.60106 10956 ft 167 kts 119°
2026-04-22 15:59 23.24153 -74.58999 10956 ft 167 kts 119°
2026-04-22 15:59 23.23592 -74.57891 10956 ft 167 kts 119°
2026-04-22 16:00 23.23031 -74.56784 10957 ft 167 kts 119°
2026-04-22 16:00 23.22469 -74.55677 10957 ft 167 kts 119°
2026-04-22 16:00 23.21907 -74.54569 10957 ft 167 kts 119°
2026-04-22 16:00 23.21346 -74.53461 10956 ft 167 kts 119°
2026-04-22 16:01 23.20783 -74.52351 10949 ft 168 kts 119°
2026-04-22 16:01 23.20220 -74.51241 10948 ft 168 kts 119°
2026-04-22 16:01 23.19665 -74.50145 10948 ft 168 kts 119°
2026-04-22 16:01 23.19103 -74.49038 10948 ft 168 kts 119°
2026-04-22 16:02 23.18540 -74.47929 10947 ft 168 kts 119°
2026-04-22 16:02 23.17977 -74.46820 10948 ft 168 kts 119°
2026-04-22 16:02 23.17414 -74.45712 10948 ft 167 kts 119°
2026-04-22 16:02 23.16851 -74.44604 10947 ft 167 kts 119°
2026-04-22 16:03 23.16288 -74.43495 10947 ft 167 kts 119°
2026-04-22 16:03 23.15725 -74.42387 10948 ft 167 kts 119°
2026-04-22 16:03 23.15163 -74.41279 10948 ft 167 kts 119°
2026-04-22 16:03 23.14600 -74.40172 10947 ft 167 kts 119°
2026-04-22 16:04 23.14036 -74.39065 10947 ft 167 kts 119°
2026-04-22 16:04 23.13472 -74.37958 10948 ft 167 kts 119°
2026-04-22 16:04 23.12905 -74.36854 10948 ft 167 kts 119°
2026-04-22 16:04 23.12336 -74.35750 10948 ft 167 kts 119°
2026-04-22 16:05 23.11953 -74.35007 10948 ft 167 kts 119°
2026-04-22 16:05 23.11197 -74.33545 10947 ft 168 kts 119°
2026-04-22 16:05 23.10626 -74.32439 10948 ft 168 kts 119°
2026-04-22 16:05 23.10059 -74.31328 10944 ft 169 kts 119°
2026-04-22 16:06 23.09485 -74.30212 10942 ft 169 kts 120°
2026-04-22 16:06 23.08899 -74.29101 10934 ft 170 kts 120°
2026-04-22 16:06 23.08318 -74.27988 10941 ft 169 kts 119°
2026-04-22 16:06 23.07749 -74.26870 10932 ft 169 kts 119°
2026-04-22 16:07 23.07182 -74.25756 10939 ft 168 kts 119°
2026-04-22 16:07 23.06620 -74.24662 10939 ft 168 kts 119°
2026-04-22 16:07 23.06049 -74.23556 10940 ft 168 kts 119°
2026-04-22 16:07 23.05478 -74.22452 10935 ft 168 kts 119°
2026-04-22 16:08 23.04907 -74.21350 10938 ft 167 kts 119°
2026-04-22 16:08 23.04337 -74.20247 10940 ft 167 kts 119°
2026-04-22 16:08 23.03767 -74.19146 10940 ft 167 kts 119°
2026-04-22 16:08 23.03198 -74.18045 10940 ft 167 kts 119°
2026-04-22 16:09 23.02630 -74.16944 10938 ft 167 kts 119°
2026-04-22 16:09 23.02061 -74.15845 10933 ft 167 kts 119°
2026-04-22 16:09 23.01494 -74.14740 10941 ft 168 kts 120°
2026-04-22 16:09 23.00911 -74.13639 10934 ft 169 kts 120°
2026-04-22 16:10 23.00340 -74.12527 10930 ft 169 kts 119°
2026-04-22 16:10 22.99766 -74.11413 10935 ft 169 kts 119°
2026-04-22 16:10 22.99387 -74.10672 10941 ft 169 kts 119°
2026-04-22 16:10 22.98634 -74.09171 10932 ft 169 kts 119°
2026-04-22 16:11 22.98057 -74.08059 10930 ft 169 kts 120°
2026-04-22 16:11 22.97472 -74.06955 10930 ft 169 kts 120°
2026-04-22 16:11 22.96896 -74.05845 10930 ft 169 kts 119°
2026-04-22 16:11 22.96329 -74.04729 10930 ft 169 kts 119°
2026-04-22 16:12 22.95751 -74.03619 10925 ft 169 kts 120°
2026-04-22 16:12 22.95165 -74.02512 10922 ft 169 kts 120°
2026-04-22 16:12 22.94582 -74.01406 10920 ft 169 kts 120°
2026-04-22 16:12 22.94002 -74.00300 10920 ft 168 kts 120°
2026-04-22 16:13 22.93428 -73.99199 10913 ft 168 kts 120°
2026-04-22 16:13 22.92857 -73.98095 10919 ft 168 kts 120°
2026-04-22 16:13 22.92288 -73.96992 10921 ft 167 kts 119°
2026-04-22 16:13 22.91719 -73.95889 10921 ft 167 kts 119°
2026-04-22 16:14 22.91150 -73.94788 10919 ft 167 kts 120°
2026-04-22 16:14 22.90581 -73.93686 10921 ft 167 kts 120°
2026-04-22 16:14 22.90011 -73.92586 10917 ft 167 kts 120°
2026-04-22 16:14 22.89441 -73.91486 10914 ft 167 kts 120°
2026-04-22 16:15 22.88870 -73.90386 10921 ft 167 kts 120°
2026-04-22 16:15 22.88299 -73.89286 10914 ft 167 kts 120°
2026-04-22 16:15 22.87728 -73.88187 10921 ft 167 kts 120°
2026-04-22 16:15 22.87164 -73.87102 10921 ft 167 kts 120°
2026-04-22 16:16 22.86590 -73.86003 10912 ft 168 kts 120°
2026-04-22 16:16 22.86016 -73.84901 10913 ft 168 kts 120°
2026-04-22 16:16 22.85441 -73.83795 10912 ft 168 kts 120°
2026-04-22 16:16 22.84862 -73.82691 10911 ft 168 kts 120°
2026-04-22 16:17 22.84290 -73.81583 10911 ft 168 kts 119°
2026-04-22 16:17 22.83719 -73.80473 10911 ft 169 kts 120°
2026-04-22 16:17 22.83145 -73.79364 10911 ft 169 kts 119°
2026-04-22 16:17 22.82569 -73.78257 10911 ft 169 kts 120°
2026-04-22 16:18 22.81987 -73.77152 10911 ft 169 kts 120°
2026-04-22 16:18 22.81406 -73.76047 10906 ft 169 kts 120°
2026-04-22 16:18 22.80830 -73.74940 10903 ft 169 kts 120°
2026-04-22 16:18 22.80254 -73.73833 10901 ft 168 kts 120°
2026-04-22 16:19 22.79679 -73.72728 10901 ft 168 kts 120°
2026-04-22 16:19 22.79105 -73.71625 10901 ft 168 kts 120°
2026-04-22 16:19 22.78727 -73.70896 10901 ft 168 kts 120°
2026-04-22 16:19 22.77960 -73.69424 10901 ft 168 kts 120°
2026-04-22 16:20 22.77580 -73.68695 10901 ft 168 kts 120°
2026-04-22 16:20 22.77007 -73.67596 10902 ft 167 kts 120°
2026-04-22 16:20 22.76434 -73.66498 10901 ft 167 kts 120°
2026-04-22 16:20 22.75861 -73.65401 10901 ft 167 kts 120°
2026-04-22 16:21 22.75287 -73.64303 10901 ft 167 kts 120°
2026-04-22 16:21 22.74713 -73.63205 10901 ft 167 kts 120°
2026-04-22 16:21 22.74139 -73.62108 10902 ft 167 kts 120°
2026-04-22 16:21 22.73565 -73.61010 10901 ft 167 kts 120°
2026-04-22 16:22 22.72415 -73.58810 10893 ft 168 kts 120°
2026-04-22 16:22 22.71841 -73.57713 10892 ft 168 kts 120°
2026-04-22 16:22 22.71266 -73.56614 10892 ft 168 kts 120°
2026-04-22 16:23 22.70118 -73.54416 10892 ft 168 kts 120°
2026-04-22 16:23 22.69543 -73.53318 10892 ft 167 kts 120°
2026-04-22 16:23 22.68969 -73.52221 10892 ft 167 kts 120°
2026-04-22 16:24 22.68395 -73.51124 10892 ft 167 kts 120°
2026-04-22 16:24 22.67246 -73.48930 10892 ft 167 kts 120°
2026-04-22 16:24 22.66671 -73.47833 10892 ft 168 kts 120°
2026-04-22 16:25 22.66097 -73.46735 10892 ft 168 kts 120°
2026-04-22 16:25 22.64951 -73.44552 10885 ft 168 kts 120°
2026-04-22 16:25 22.64371 -73.43451 10884 ft 168 kts 120°
2026-04-22 16:26 22.63795 -73.42352 10882 ft 166 kts 120°
2026-04-22 16:26 22.63287 -73.41376 10828 ft 133 kts 120°
2026-04-22 16:26 22.62871 -73.40590 10694 ft 115 kts 121°
2026-04-22 16:26 22.62442 -73.39793 10236 ft 125 kts 121°
2026-04-22 16:27 22.62030 -73.39027 10016 ft 114 kts 120°
2026-04-22 16:27 22.61617 -73.38252 9615 ft 120 kts 120°
2026-04-22 16:27 22.61222 -73.37504 9354 ft 112 kts 120°
2026-04-22 16:27 22.60828 -73.36752 8994 ft 115 kts 119°
2026-04-22 16:28 22.60444 -73.36014 8710 ft 112 kts 119°
2026-04-22 16:28 22.60055 -73.35273 8374 ft 113 kts 119°
2026-04-22 16:28 22.59668 -73.34550 8078 ft 110 kts 118°
2026-04-22 16:28 22.59287 -73.33840 7820 ft 102 kts 118°
2026-04-22 16:29 22.58953 -73.33202 7742 ft 104 kts 115°
2026-04-22 16:29 22.58613 -73.32463 7926 ft 103 kts 114°
2026-04-22 16:29 22.58308 -73.31808 8219 ft 98 kts 113°
2026-04-22 16:29 22.58015 -73.31161 8467 ft 96 kts 114°
2026-04-22 16:30 22.57819 -73.30730 8609 ft 96 kts 114°
2026-04-22 16:30 22.57400 -73.29866 8881 ft 98 kts 117°
2026-04-22 16:30 22.57065 -73.29232 9083 ft 99 kts 119°
2026-04-22 16:30 22.56704 -73.28587 9279 ft 101 kts 121°
2026-04-22 16:31 22.56333 -73.27945 9462 ft 102 kts 122°
2026-04-22 16:31 22.55944 -73.27294 9674 ft 101 kts 121°
2026-04-22 16:31 22.55567 -73.26653 9867 ft 105 kts 120°
2026-04-22 16:31 22.55183 -73.25981 10089 ft 103 kts 120°
2026-04-22 16:32 22.54812 -73.25303 10273 ft 108 kts 119°
2026-04-22 16:32 22.54443 -73.24596 10493 ft 106 kts 119°
2026-04-22 16:32 22.54079 -73.23891 10669 ft 110 kts 119°
2026-04-22 16:32 22.53705 -73.23167 10890 ft 109 kts 119°
2026-04-22 16:33 22.53330 -73.22442 11069 ft 113 kts 119°
2026-04-22 16:33 22.52946 -73.21706 11282 ft 111 kts 120°
2026-04-22 16:33 22.52560 -73.20966 11457 ft 115 kts 120°
2026-04-22 16:33 22.52121 -73.20146 11425 ft 136 kts 121°
2026-04-22 16:34 22.51574 -73.19172 11168 ft 162 kts 122°
2026-04-22 16:34 22.50965 -73.18095 11048 ft 170 kts 122°
2026-04-22 16:34 22.50353 -73.16972 10836 ft 181 kts 120°
2026-04-22 16:34 22.49746 -73.15800 10843 ft 176 kts 119°
2026-04-22 16:35 22.49164 -73.14648 10830 ft 174 kts 119°
2026-04-22 16:35 22.48588 -73.13506 10834 ft 172 kts 119°
2026-04-22 16:35 22.48011 -73.12380 10831 ft 171 kts 119°
2026-04-22 16:35 22.47432 -73.11260 10831 ft 170 kts 120°
2026-04-22 16:36 22.46851 -73.10145 10831 ft 170 kts 120°
2026-04-22 16:36 22.46268 -73.09032 10832 ft 170 kts 120°
2026-04-22 16:36 22.45683 -73.07920 10832 ft 170 kts 120°
2026-04-22 16:36 22.45097 -73.06810 10832 ft 170 kts 120°
2026-04-22 16:37 22.44510 -73.05699 10831 ft 170 kts 120°
2026-04-22 16:37 22.43923 -73.04589 10832 ft 170 kts 120°
2026-04-22 16:37 22.43336 -73.03478 10833 ft 170 kts 120°
2026-04-22 16:37 22.42750 -73.02366 10833 ft 170 kts 120°
2026-04-22 16:38 22.42161 -73.01253 10832 ft 171 kts 120°
2026-04-22 16:38 22.41573 -73.00138 10832 ft 171 kts 120°
2026-04-22 16:38 22.40984 -72.99024 10832 ft 171 kts 120°
2026-04-22 16:38 22.40394 -72.97911 10832 ft 171 kts 120°
2026-04-22 16:39 22.39803 -72.96798 10827 ft 171 kts 120°
2026-04-22 16:39 22.39210 -72.95685 10823 ft 171 kts 120°
2026-04-22 16:39 22.38620 -72.94575 10822 ft 171 kts 120°
2026-04-22 16:39 22.38032 -72.93462 10823 ft 170 kts 120°
2026-04-22 16:40 22.37446 -72.92349 10822 ft 170 kts 120°
2026-04-22 16:40 22.36858 -72.91239 10822 ft 170 kts 120°
2026-04-22 16:40 22.35689 -72.89029 10822 ft 169 kts 120°
2026-04-22 16:41 22.35106 -72.87929 10822 ft 169 kts 120°
2026-04-22 16:41 22.34523 -72.86830 10822 ft 168 kts 120°
2026-04-22 16:41 22.33941 -72.85732 10822 ft 168 kts 120°
2026-04-22 16:41 22.33359 -72.84636 10823 ft 168 kts 120°
2026-04-22 16:42 22.32778 -72.83539 10822 ft 168 kts 120°
2026-04-22 16:42 22.32196 -72.82442 10822 ft 168 kts 120°
2026-04-22 16:42 22.31614 -72.81345 10822 ft 168 kts 120°
2026-04-22 16:42 22.31034 -72.80249 10822 ft 168 kts 120°
2026-04-22 16:43 22.30451 -72.79154 10822 ft 168 kts 120°
2026-04-22 16:43 22.29871 -72.78061 10823 ft 168 kts 120°
2026-04-22 16:43 22.29289 -72.76964 10823 ft 168 kts 120°
2026-04-22 16:43 22.28709 -72.75864 10817 ft 169 kts 120°
2026-04-22 16:44 22.28125 -72.74766 10814 ft 168 kts 120°
2026-04-22 16:44 22.27541 -72.73675 10813 ft 168 kts 120°
2026-04-22 16:44 22.26960 -72.72585 10813 ft 167 kts 120°
2026-04-22 16:44 22.26380 -72.71495 10813 ft 167 kts 120°
2026-04-22 16:45 22.25802 -72.70403 10813 ft 168 kts 120°
2026-04-22 16:45 22.25223 -72.69310 10814 ft 168 kts 120°
2026-04-22 16:45 22.24642 -72.68218 10814 ft 168 kts 120°
2026-04-22 16:45 22.24068 -72.67141 10813 ft 168 kts 120°
2026-04-22 16:46 22.23489 -72.66049 10813 ft 168 kts 120°
2026-04-22 16:46 22.22935 -72.64942 10813 ft 167 kts 118°
2026-04-22 16:46 22.22401 -72.63828 10813 ft 167 kts 117°
2026-04-22 16:46 22.21874 -72.62705 10813 ft 167 kts 117°
2026-04-22 16:47 22.21351 -72.61586 10813 ft 167 kts 117°
2026-04-22 16:47 22.20824 -72.60465 10813 ft 167 kts 117°
2026-04-22 16:47 22.20295 -72.59346 10813 ft 167 kts 117°
2026-04-22 16:47 22.19763 -72.58228 10813 ft 167 kts 117°
2026-04-22 16:48 22.19228 -72.57113 10813 ft 167 kts 118°
2026-04-22 16:48 22.18691 -72.55998 10813 ft 167 kts 118°
2026-04-22 16:48 22.18154 -72.54884 10813 ft 167 kts 118°
2026-04-22 16:48 22.17615 -72.53770 10813 ft 168 kts 118°
2026-04-22 16:49 22.17078 -72.52654 10813 ft 168 kts 118°
2026-04-22 16:49 22.16541 -72.51537 10813 ft 168 kts 118°
2026-04-22 16:49 22.16002 -72.50423 10813 ft 168 kts 118°
2026-04-22 16:49 22.15462 -72.49310 10813 ft 167 kts 118°
2026-04-22 16:50 22.14922 -72.48196 10813 ft 167 kts 118°
2026-04-22 16:50 22.14384 -72.47083 10813 ft 168 kts 118°
2026-04-22 16:50 22.13846 -72.45968 10813 ft 167 kts 118°
2026-04-22 16:50 22.13308 -72.44857 10814 ft 167 kts 118°
2026-04-22 16:51 22.12670 -72.43810 10815 ft 167 kts 131°
2026-04-22 16:51 22.11800 -72.42990 10814 ft 166 kts 148°
2026-04-22 16:51 22.10765 -72.42443 10813 ft 166 kts 161°
2026-04-22 16:51 22.09671 -72.42064 10812 ft 165 kts 166°
2026-04-22 16:52 22.08567 -72.41736 10811 ft 164 kts 166°
2026-04-22 16:52 22.07484 -72.41399 10812 ft 164 kts 165°
2026-04-22 16:52 22.06396 -72.41017 10806 ft 165 kts 162°
2026-04-22 16:52 22.05321 -72.40590 10804 ft 165 kts 160°
2026-04-22 16:53 22.04260 -72.40121 10804 ft 165 kts 159°
2026-04-22 16:53 22.03212 -72.39621 10804 ft 165 kts 157°
2026-04-22 16:53 22.02174 -72.39102 10804 ft 165 kts 156°
2026-04-22 16:53 22.01134 -72.38571 10804 ft 165 kts 156°
2026-04-22 16:54 22.00098 -72.38038 10804 ft 165 kts 156°
2026-04-22 16:54 21.99064 -72.37507 10804 ft 165 kts 156°
2026-04-22 16:54 21.98026 -72.36977 10804 ft 165 kts 156°
2026-04-22 16:54 21.96987 -72.36450 10804 ft 165 kts 156°
2026-04-22 16:55 21.95946 -72.35926 10804 ft 165 kts 156°
2026-04-22 16:55 21.94904 -72.35406 10804 ft 165 kts 157°
2026-04-22 16:55 21.93863 -72.34886 10804 ft 165 kts 157°
2026-04-22 16:55 21.92820 -72.34367 10804 ft 165 kts 157°
2026-04-22 16:56 21.91777 -72.33848 10805 ft 165 kts 157°
2026-04-22 16:56 21.90732 -72.33329 10804 ft 165 kts 157°
2026-04-22 16:56 21.89688 -72.32809 10804 ft 165 kts 157°
2026-04-22 16:56 21.88643 -72.32287 10804 ft 165 kts 157°
2026-04-22 16:57 21.87598 -72.31767 10804 ft 166 kts 157°
2026-04-22 16:57 21.86552 -72.31247 10804 ft 166 kts 157°
2026-04-22 16:57 21.85509 -72.30728 10804 ft 166 kts 157°
2026-04-22 16:57 21.84464 -72.30206 10804 ft 166 kts 156°
2026-04-22 16:58 21.83758 -72.29853 10804 ft 166 kts 156°
2026-04-22 16:58 21.82374 -72.29162 10804 ft 166 kts 156°
2026-04-22 16:58 21.81327 -72.28639 10804 ft 166 kts 156°
2026-04-22 16:58 21.80280 -72.28113 10804 ft 166 kts 156°
2026-04-22 16:59 21.79232 -72.27593 10804 ft 166 kts 157°
2026-04-22 16:59 21.78183 -72.27075 10804 ft 166 kts 156°
2026-04-22 16:59 21.77140 -72.26545 10804 ft 166 kts 155°
2026-04-22 16:59 21.76139 -72.25932 10805 ft 166 kts 148°
2026-04-22 17:00 21.75218 -72.25184 10803 ft 166 kts 141°
2026-04-22 17:00 21.73512 -72.23502 10802 ft 167 kts 137°
2026-04-22 17:00 21.72675 -72.22642 10803 ft 166 kts 137°
2026-04-22 17:01 21.71831 -72.21794 10805 ft 166 kts 138°
2026-04-22 17:01 21.70976 -72.20963 10804 ft 166 kts 139°
2026-04-22 17:01 21.70111 -72.20144 10804 ft 166 kts 140°
2026-04-22 17:01 21.69238 -72.19335 10804 ft 166 kts 140°
2026-04-22 17:02 21.68358 -72.18534 10803 ft 166 kts 141°
2026-04-22 17:02 21.67475 -72.17737 10803 ft 166 kts 141°
2026-04-22 17:02 21.66591 -72.16941 10804 ft 166 kts 141°
2026-04-22 17:02 21.65707 -72.16144 10804 ft 166 kts 141°
2026-04-22 17:03 21.64822 -72.15349 10803 ft 166 kts 141°
2026-04-22 17:03 21.63938 -72.14553 10804 ft 166 kts 141°
2026-04-22 17:03 21.63057 -72.13757 10804 ft 166 kts 141°
2026-04-22 17:03 21.62175 -72.12959 10804 ft 166 kts 141°
2026-04-22 17:04 21.61579 -72.12421 10804 ft 166 kts 141°
2026-04-22 17:04 21.60413 -72.11365 10804 ft 166 kts 141°
2026-04-22 17:04 21.59531 -72.10568 10803 ft 166 kts 141°
2026-04-22 17:04 21.58650 -72.09770 10803 ft 166 kts 141°
2026-04-22 17:05 21.57768 -72.08973 10805 ft 166 kts 141°
2026-04-22 17:05 21.56887 -72.08175 10803 ft 166 kts 141°
2026-04-22 17:05 21.56005 -72.07377 10804 ft 166 kts 141°
2026-04-22 17:05 21.55123 -72.06579 10803 ft 166 kts 141°
2026-04-22 17:06 21.54241 -72.05782 10804 ft 166 kts 141°
2026-04-22 17:06 21.53359 -72.04984 10805 ft 166 kts 141°
2026-04-22 17:06 21.52476 -72.04187 10803 ft 166 kts 141°
2026-04-22 17:06 21.51594 -72.03390 10806 ft 166 kts 141°
2026-04-22 17:07 21.50712 -72.02593 10805 ft 166 kts 141°
2026-04-22 17:07 21.49830 -72.01797 10804 ft 166 kts 141°
2026-04-22 17:07 21.48950 -72.01002 10803 ft 166 kts 141°
2026-04-22 17:07 21.48066 -72.00203 10805 ft 166 kts 141°
2026-04-22 17:08 21.47186 -71.99408 10803 ft 166 kts 141°
2026-04-22 17:08 21.46303 -71.98612 10803 ft 166 kts 141°
2026-04-22 17:08 21.45718 -71.98084 10805 ft 166 kts 141°
2026-04-22 17:08 21.44538 -71.97019 10804 ft 166 kts 141°
2026-04-22 17:09 21.43953 -71.96492 10805 ft 166 kts 141°
2026-04-22 17:09 21.43070 -71.95695 10805 ft 166 kts 141°
2026-04-22 17:09 21.42187 -71.94899 10803 ft 166 kts 141°
2026-04-22 17:09 21.41304 -71.94103 10804 ft 166 kts 141°
2026-04-22 17:10 21.40422 -71.93307 10804 ft 166 kts 141°
2026-04-22 17:10 21.39541 -71.92514 10803 ft 166 kts 141°
2026-04-22 17:10 21.38659 -71.91719 10804 ft 166 kts 141°
2026-04-22 17:10 21.37778 -71.90926 10804 ft 165 kts 141°
2026-04-22 17:11 21.36898 -71.90137 10809 ft 164 kts 141°
2026-04-22 17:11 21.36022 -71.89347 10820 ft 165 kts 141°
2026-04-22 17:11 21.35145 -71.88553 10822 ft 165 kts 141°
2026-04-22 17:11 21.34266 -71.87759 10822 ft 165 kts 141°
2026-04-22 17:12 21.33384 -71.86964 10823 ft 166 kts 141°
2026-04-22 17:12 21.32502 -71.86170 10823 ft 166 kts 141°
2026-04-22 17:12 21.31618 -71.85375 10823 ft 166 kts 141°
2026-04-22 17:12 21.30735 -71.84581 10823 ft 166 kts 141°
2026-04-22 17:13 21.29841 -71.83799 10822 ft 166 kts 142°
2026-04-22 17:13 21.28932 -71.83040 10823 ft 166 kts 143°
2026-04-22 17:13 21.28014 -71.82293 10822 ft 166 kts 144°
2026-04-22 17:13 21.27095 -71.81552 10822 ft 166 kts 144°
2026-04-22 17:14 21.26173 -71.80810 10822 ft 166 kts 144°
2026-04-22 17:14 21.25265 -71.80076 10822 ft 166 kts 144°
2026-04-22 17:14 21.24345 -71.79330 10822 ft 166 kts 143°
2026-04-22 17:14 21.23429 -71.78581 10822 ft 166 kts 143°
2026-04-22 17:15 21.22809 -71.78073 10823 ft 166 kts 143°
2026-04-22 17:15 21.21599 -71.77078 10822 ft 165 kts 143°
2026-04-22 17:15 21.20685 -71.76331 10822 ft 165 kts 143°
2026-04-22 17:15 21.19773 -71.75583 10822 ft 165 kts 143°
2026-04-22 17:16 21.18863 -71.74832 10823 ft 165 kts 143°
2026-04-22 17:16 21.17952 -71.74079 10815 ft 165 kts 143°
2026-04-22 17:16 21.17040 -71.73326 10813 ft 165 kts 143°
2026-04-22 17:16 21.16128 -71.72574 10813 ft 165 kts 143°
2026-04-22 17:17 21.15218 -71.71824 10813 ft 165 kts 143°
2026-04-22 17:17 21.14305 -71.71074 10813 ft 165 kts 143°
2026-04-22 17:17 21.13392 -71.70323 10813 ft 165 kts 143°
2026-04-22 17:17 21.12479 -71.69573 10813 ft 165 kts 143°
2026-04-22 17:18 21.11566 -71.68825 10813 ft 165 kts 143°
2026-04-22 17:18 21.10653 -71.68076 10813 ft 165 kts 143°
2026-04-22 17:18 21.09739 -71.67327 10813 ft 165 kts 143°
2026-04-22 17:18 21.08826 -71.66578 10814 ft 165 kts 143°
2026-04-22 17:19 21.06998 -71.65078 10814 ft 166 kts 143°
2026-04-22 17:19 21.05167 -71.63577 10813 ft 166 kts 143°
2026-04-22 17:20 21.03342 -71.62082 10813 ft 165 kts 142°
2026-04-22 17:20 21.01522 -71.60587 10812 ft 165 kts 143°
2026-04-22 17:21 21.00612 -71.59844 10809 ft 165 kts 143°
2026-04-22 17:21 20.98788 -71.58348 10804 ft 165 kts 143°
2026-04-22 17:22 20.96967 -71.56853 10806 ft 165 kts 143°
2026-04-22 17:22 20.96056 -71.56107 10804 ft 165 kts 143°
2026-04-22 17:22 20.94248 -71.54626 10803 ft 165 kts 143°
2026-04-22 17:23 20.93337 -71.53881 10804 ft 165 kts 143°
2026-04-22 17:23 20.91520 -71.52393 10804 ft 165 kts 143°
2026-04-22 17:23 20.90610 -71.51649 10804 ft 165 kts 143°
2026-04-22 17:24 20.89700 -71.50905 10804 ft 165 kts 143°
2026-04-22 17:24 20.88790 -71.50160 10804 ft 165 kts 143°
2026-04-22 17:24 20.87879 -71.49414 10804 ft 165 kts 143°
2026-04-22 17:24 20.86967 -71.48669 10804 ft 165 kts 143°
2026-04-22 17:25 20.86056 -71.47924 10804 ft 165 kts 143°
2026-04-22 17:25 20.85145 -71.47179 10804 ft 165 kts 143°
2026-04-22 17:25 20.84233 -71.46434 10804 ft 165 kts 143°
2026-04-22 17:25 20.83322 -71.45689 10804 ft 165 kts 143°
2026-04-22 17:26 20.82411 -71.44945 10804 ft 165 kts 143°
2026-04-22 17:26 20.81499 -71.44200 10804 ft 165 kts 143°
2026-04-22 17:26 20.80587 -71.43455 10797 ft 165 kts 143°
2026-04-22 17:26 20.79674 -71.42709 10795 ft 165 kts 143°
2026-04-22 17:27 20.78760 -71.41963 10795 ft 165 kts 143°
2026-04-22 17:27 20.77847 -71.41216 10795 ft 166 kts 143°
2026-04-22 17:27 20.76930 -71.40470 10794 ft 166 kts 143°
2026-04-22 17:27 20.76012 -71.39723 10794 ft 166 kts 143°
2026-04-22 17:28 20.75097 -71.38971 10794 ft 166 kts 143°
2026-04-22 17:28 20.74181 -71.38226 10794 ft 165 kts 143°
2026-04-22 17:28 20.73268 -71.37481 10794 ft 165 kts 143°
2026-04-22 17:28 20.72355 -71.36737 10795 ft 165 kts 143°
2026-04-22 17:29 20.71443 -71.35993 10796 ft 165 kts 143°
2026-04-22 17:29 20.70531 -71.35250 10794 ft 165 kts 143°
2026-04-22 17:29 20.69617 -71.34510 10794 ft 165 kts 143°
2026-04-22 17:29 20.68693 -71.33784 10798 ft 165 kts 144°
2026-04-22 17:30 20.67762 -71.33069 10793 ft 165 kts 144°
2026-04-22 17:30 20.66828 -71.32359 10794 ft 165 kts 145°
2026-04-22 17:30 20.65893 -71.31651 10794 ft 165 kts 145°
2026-04-22 17:30 20.64958 -71.30942 10794 ft 165 kts 144°
2026-04-22 17:31 20.64026 -71.30232 10793 ft 165 kts 144°
2026-04-22 17:31 20.63094 -71.29520 10796 ft 165 kts 144°
2026-04-22 17:31 20.62162 -71.28806 10794 ft 165 kts 144°
2026-04-22 17:31 20.61243 -71.28100 10794 ft 165 kts 144°
2026-04-22 17:32 20.60312 -71.27385 10797 ft 165 kts 144°
2026-04-22 17:32 20.59381 -71.26670 10794 ft 165 kts 144°
2026-04-22 17:32 20.58450 -71.25955 10794 ft 165 kts 144°
2026-04-22 17:32 20.57520 -71.25240 10794 ft 165 kts 144°
2026-04-22 17:33 20.56890 -71.24756 10793 ft 165 kts 144°
2026-04-22 17:33 20.55657 -71.23810 10796 ft 165 kts 144°
2026-04-22 17:33 20.54725 -71.23094 10794 ft 165 kts 144°
2026-04-22 17:33 20.53792 -71.22379 10794 ft 165 kts 144°
2026-04-22 17:34 20.52858 -71.21662 10787 ft 165 kts 144°
2026-04-22 17:34 20.51925 -71.20945 10786 ft 165 kts 144°
2026-04-22 17:34 20.50995 -71.20231 10786 ft 165 kts 144°
2026-04-22 17:34 20.50063 -71.19516 10785 ft 165 kts 144°
2026-04-22 17:35 20.49132 -71.18802 10785 ft 165 kts 144°
2026-04-22 17:35 20.48200 -71.18089 10785 ft 165 kts 144°
2026-04-22 17:35 20.47269 -71.17375 10786 ft 164 kts 144°
2026-04-22 17:35 20.46354 -71.16675 10785 ft 164 kts 144°
2026-04-22 17:36 20.45427 -71.15968 10786 ft 164 kts 144°
2026-04-22 17:36 20.44500 -71.15260 10786 ft 164 kts 144°
2026-04-22 17:36 20.43575 -71.14550 10785 ft 164 kts 144°
2026-04-22 17:36 20.42639 -71.13860 10780 ft 162 kts 147°
2026-04-22 17:37 20.41655 -71.13274 10618 ft 164 kts 153°
2026-04-22 17:37 20.40603 -71.12772 10421 ft 166 kts 157°
2026-04-22 17:37 20.39540 -71.12332 10321 ft 162 kts 159°
2026-04-22 17:37 20.38478 -71.11917 10154 ft 164 kts 159°
2026-04-22 17:38 20.37410 -71.11493 10008 ft 163 kts 159°
2026-04-22 17:38 20.36363 -71.11061 9886 ft 160 kts 158°
2026-04-22 17:38 20.35322 -71.10612 9674 ft 164 kts 156°
2026-04-22 17:38 20.34279 -71.10149 9656 ft 160 kts 156°
2026-04-22 17:39 20.33270 -71.09678 9663 ft 157 kts 154°
2026-04-22 17:39 20.32424 -71.08980 9669 ft 154 kts 130°
2026-04-22 17:39 20.31008 -71.07293 9669 ft 152 kts 130°
2026-04-22 17:40 20.30306 -71.06456 9670 ft 151 kts 130°
2026-04-22 17:40 20.29606 -71.05621 9671 ft 151 kts 130°
2026-04-22 17:40 20.28909 -71.04786 9672 ft 151 kts 129°
2026-04-22 17:40 20.28301 -71.03878 9635 ft 151 kts 122°
2026-04-22 17:41 20.27720 -71.02951 9601 ft 151 kts 122°
2026-04-22 17:41 20.27143 -71.02018 9570 ft 150 kts 122°
2026-04-22 17:41 20.26568 -71.01088 9532 ft 151 kts 122°
2026-04-22 17:41 20.25992 -71.00160 9497 ft 150 kts 122°
2026-04-22 17:42 20.25413 -70.99236 9441 ft 150 kts 122°
2026-04-22 17:42 20.24705 -70.98406 9353 ft 153 kts 135°
2026-04-22 17:42 20.24199 -70.97895 9357 ft 150 kts 135°
2026-04-22 17:42 20.23190 -70.96882 9292 ft 151 kts 135°
2026-04-22 17:43 20.22435 -70.96125 9245 ft 150 kts 135°
2026-04-22 17:43 20.21679 -70.95366 9220 ft 149 kts 135°
2026-04-22 17:43 20.20922 -70.94607 9135 ft 150 kts 135°
2026-04-22 17:43 20.20160 -70.93846 9073 ft 149 kts 135°
2026-04-22 17:44 20.19401 -70.93095 9017 ft 149 kts 135°
2026-04-22 17:44 20.18642 -70.92342 8945 ft 149 kts 135°
2026-04-22 17:44 20.17883 -70.91591 8892 ft 148 kts 135°
2026-04-22 17:44 20.17128 -70.90842 8828 ft 149 kts 135°
2026-04-22 17:45 20.16373 -70.90094 8770 ft 148 kts 135°
2026-04-22 17:45 20.15618 -70.89346 8718 ft 148 kts 135°
2026-04-22 17:45 20.14864 -70.88598 8663 ft 148 kts 135°
2026-04-22 17:45 20.14109 -70.87852 8611 ft 148 kts 136°
2026-04-22 17:46 20.13154 -70.87415 8379 ft 159 kts 174°
2026-04-22 17:46 20.12084 -70.87716 8298 ft 157 kts 205°
2026-04-22 17:46 20.11162 -70.88203 8462 ft 144 kts 205°
2026-04-22 17:46 20.10221 -70.88701 8236 ft 158 kts 205°
2026-04-22 17:47 20.09254 -70.89214 8274 ft 150 kts 205°
2026-04-22 17:47 20.08333 -70.89707 8244 ft 150 kts 205°
2026-04-22 17:47 20.07376 -70.90218 8133 ft 154 kts 205°
2026-04-22 17:47 20.06439 -70.90719 8163 ft 148 kts 205°
2026-04-22 17:48 20.05816 -70.91053 8070 ft 150 kts 205°
2026-04-22 17:48 20.04553 -70.91728 7867 ft 152 kts 205°
2026-04-22 17:48 20.03623 -70.92228 7804 ft 149 kts 205°
2026-04-22 17:48 20.02684 -70.92732 7645 ft 153 kts 205°
2026-04-22 17:49 20.01745 -70.93236 7571 ft 149 kts 205°
2026-04-22 17:49 20.00817 -70.93734 7462 ft 150 kts 204°
2026-04-22 17:49 19.99775 -70.93893 7216 ft 157 kts 171°
2026-04-22 17:49 19.98735 -70.93745 7276 ft 142 kts 169°
2026-04-22 17:50 19.97774 -70.93502 7142 ft 147 kts 159°
2026-04-22 17:50 19.96809 -70.93060 7069 ft 148 kts 152°
2026-04-22 17:50 19.95932 -70.92592 7211 ft 139 kts 151°
2026-04-22 17:50 19.95037 -70.92112 7081 ft 149 kts 151°
2026-04-22 17:51 19.94121 -70.91640 7148 ft 142 kts 152°
2026-04-22 17:51 19.93227 -70.91198 7149 ft 144 kts 153°
2026-04-22 17:51 19.92303 -70.90749 7118 ft 146 kts 153°
2026-04-22 17:51 19.91389 -70.90314 7174 ft 143 kts 154°
2026-04-22 17:52 19.90471 -70.89885 7140 ft 145 kts 154°
2026-04-22 17:52 19.89549 -70.89452 7129 ft 144 kts 154°
2026-04-22 17:52 19.88626 -70.89025 7092 ft 145 kts 154°
2026-04-22 17:52 19.87715 -70.88601 7059 ft 145 kts 154°
2026-04-22 17:53 19.86795 -70.88172 7032 ft 144 kts 154°
2026-04-22 17:53 19.85875 -70.87743 7001 ft 145 kts 154°
2026-04-22 17:53 19.84957 -70.87316 6976 ft 144 kts 154°
2026-04-22 17:53 19.84037 -70.86886 6943 ft 145 kts 154°
2026-04-22 17:54 19.83123 -70.86460 6935 ft 140 kts 154°
2026-04-22 17:54 19.82236 -70.86049 6635 ft 146 kts 154°
2026-04-22 17:54 19.81295 -70.85609 6438 ft 143 kts 154°
2026-04-22 17:54 19.80408 -70.85201 6289 ft 139 kts 154°
2026-04-22 17:55 19.79807 -70.84921 6073 ft 145 kts 153°
2026-04-22 17:55 19.78596 -70.84357 5870 ft 138 kts 154°
2026-04-22 17:55 19.77708 -70.83945 5617 ft 141 kts 154°
2026-04-22 17:55 19.76809 -70.83526 5412 ft 140 kts 154°
2026-04-22 17:56 19.75926 -70.83114 5223 ft 139 kts 153°
2026-04-22 17:56 19.75035 -70.82708 4982 ft 140 kts 155°
2026-04-22 17:56 19.74122 -70.82365 4762 ft 138 kts 159°
2026-04-22 17:56 19.73200 -70.82075 4542 ft 139 kts 161°
2026-04-22 17:57 19.72271 -70.81796 4325 ft 138 kts 161°
2026-04-22 17:57 19.71348 -70.81512 4132 ft 139 kts 161°
2026-04-22 17:57 19.70418 -70.81217 4109 ft 136 kts 160°
2026-04-22 17:57 19.69560 -70.80837 4063 ft 138 kts 146°
2026-04-22 17:58 19.69040 -70.80430 4055 ft 140 kts 135°
2026-04-22 17:58 19.68465 -70.79672 4293 ft 127 kts 118°
2026-04-22 17:58 19.68161 -70.78442 4212 ft 141 kts 78°
2026-04-22 17:58 19.68448 -70.77831 4247 ft 139 kts 50°
2026-04-22 17:59 19.69222 -70.76948 4294 ft 121 kts 48°
2026-04-22 17:59 19.69650 -70.76469 3857 ft 143 kts 48°
2026-04-22 17:59 19.70355 -70.75403 3747 ft 122 kts 64°
2026-04-22 17:59 19.70597 -70.74838 3504 ft 130 kts 69°
2026-04-22 18:00 19.70894 -70.73905 3216 ft 131 kts 72°
2026-04-22 18:00 19.71167 -70.72984 2845 ft 140 kts 72°
2026-04-22 18:00 19.71543 -70.71783 2761 ft 119 kts 71°
2026-04-22 18:00 19.71729 -70.71212 2730 ft 123 kts 71°
2026-04-22 18:01 19.71986 -70.70329 2663 ft 128 kts 73°
2026-04-22 18:01 19.72255 -70.69397 2552 ft 134 kts 73°
2026-04-22 18:01 19.72529 -70.68431 2391 ft 141 kts 73°
2026-04-22 18:01 19.72818 -70.67454 2178 ft 142 kts 72°
2026-04-22 18:02 19.73105 -70.66477 1949 ft 134 kts 74°
2026-04-22 18:02 19.73363 -70.65567 1838 ft 121 kts 74°
2026-04-22 18:02 19.73590 -70.64755 1705 ft 108 kts 74°
2026-04-22 18:02 19.73787 -70.64007 1448 ft 103 kts 75°
2026-04-22 18:03 19.73971 -70.63293 1219 ft 99 kts 75°
2026-04-22 18:03 19.74191 -70.62613 1066 ft 98 kts 72°
2026-04-22 18:03 19.74398 -70.61919 932 ft 101 kts 75°
2026-04-22 18:03 19.74594 -70.61188 769 ft 104 kts 75°
2026-04-22 18:04 19.74803 -70.60453 542 ft 103 kts 74°
2026-04-22 18:04 19.75002 -70.59738 319 ft 99 kts 74°
2026-04-22 18:04 19.75205 -70.59022 205 ft 103 kts 73°
2026-04-22 18:04 19.75412 -70.58308 47 ft 97 kts 74°
2026-04-22 18:05 19.75579 -70.57730 21 ft 67 kts 74°
2026-04-22 18:05 19.75688 -70.57342 16 ft 43 kts 76°
2026-04-22 18:05 19.75770 -70.57071 19 ft 35 kts 73°
2026-04-22 18:05 19.75838 -70.56830 20 ft 33 kts 73°
2026-04-22 18:06 19.75897 -70.56616 24 ft 26 kts 71°
2026-04-22 18:06 19.75931 -70.56440 23 ft 15 kts 149°
2026-04-22 18:06 19.75837 -70.56416 24 ft 15 kts 162°
2026-04-22 18:06 19.75737 -70.56383 25 ft 15 kts 162°
2026-04-22 18:07 19.75707 -70.56311 28 ft 12 kts 77°
2026-04-22 18:07 19.75726 -70.56223 30 ft 10 kts 93°
2026-04-22 18:07 19.75697 -70.56193 34 ft 4 kts 182°
2026-04-22 18:07 19.75691 -70.56201 34 ft 0 kts 251°